Location: Cicognara
(44.9500°N, 10.4667°E)
Time: 23:29:04
(UTC+00:00)

Cosmos 1726 Rocket - Pass Details

Date: 20 June 2021
Orbit: 602 x 630 km, 82.5° (Epoch: 23 July)

Event Time Altitude Azimuth Distance (km) Brightness Sun altitude
Rises 21:18:34 0° 357° (N) 2,931 8.2 -16.2°
Reaches altitude 10° 21:20:56 10° 5° (N) 2,016 7.0 -16.4°
Maximum altitude 21:25:10 41° 76° (ENE) 918 4.3 -16.8°
Enters shadow 21:26:51 29° 124° (SE) 1,162 4.5 -16.9°
